Regional Weather Roundup
Issued by NWS Charleston, SC

Home | Current Version | Previous Version | Text Only | Print | Product List | Glossary On
Versions: 1 2 3 4 5 6 7 8 9 10 11 12 13 14 15 16 17 18 19 20 21 22 23 24 25 26 27 28 29 30 31 32 33 34 35 36 37 38 39 40 41 42 43 44 45 46 47 48 49 50
000
ASUS42 KCHS 022012
RWRCHS

REGIONAL WEATHER ROUNDUP
NATIONAL WEATHER SERVICE CHARLESTON SC
300 PM EST FRI DEC 02 2016

NOTE: "FAIR" INDICATES FEW OR NO CLOUDS BELOW 12,000 FEET WITH NO
SIGNIFICANT WEATHER AND/OR OBSTRUCTIONS TO VISIBILITY.

NOT ALL STATIONS ARE QUALITY CONTROLLED. USE DATA WITH CAUTION...
ESPECIALLY DEWPOINT OBSERVATIONS.

SCZ027-030-031-034>040-042>050-022100-
...SOUTHEAST SOUTH CAROLINA...

CITY           SKY/WX    TMP DP  RH WIND       PRES   REMARKS
N CHARLESTON   SUNNY     62  35  36 N8        30.13S
WATERFRONT PRK   N/A     60  40  47 N7        30.12F
MOUNT PLEASANT NOT AVBL
JOHNS ISLAND   FAIR      63  36  36 N6G12     30.13S
PINOPOLIS        N/A     57  37  47 NW10      30.05F
MONCKS CORNER  FAIR      57  32  38 N8        30.13S
SUMMERVILLE    FAIR      61  36  39 NW7       30.15S
BEAUFORT MCAS  SUNNY     62  36  37 NW10      30.14F
BEAUFORT ARPT  FAIR      61  36  39 NW8       30.14S HAZE
HILTON HEAD IS SUNNY     63  37  39 NW8       30.15S
WALTERBORO     CLEAR     63  32  31 NW6       30.15S
ALLENDALE      FAIR      61  34  36 VRB5      30.14F

...SOUTHERN MIDLANDS AND PEE DEE...

CITY           SKY/WX    TMP DP  RH WIND       PRES   REMARKS
GEORGETOWN     NOT AVBL
KINGSTREE      FAIR      59  32  36 W13G18    30.13F
ORANGEBURG     SUNNY     60  32  34 NW9       30.15S
BARNWELL       NOT AVBL
AIKEN          FAIR      59  32  36 W6        30.19R
MANNING        NOT AVBL
COLUMBIA       MOSUNNY   62  30  29 NW9       30.14S
SUMTER         SUNNY     60  31  33 NW14      30.12S
FLORENCE       SUNNY     59  33  37 NW9       30.13S
MYRTLE BEACH   SUNNY     61  32  33 N12       30.14R
N MYRTLE BEACH SUNNY     59  33  37 N6        30.11S

$$

GAZ063-065-086>088-099>101-113>116-118-119-134>141-150-022100-
...SOUTHEAST GEORGIA...

CITY           SKY/WX    TMP DP  RH WIND       PRES   REMARKS
SAVANNAH ARPT  MOSUNNY   63  35  35 N7        30.15S
HUNTER AAF     SUNNY     64  42  44 NW10      30.12S
FORT STEWART   SUNNY     64  35  33 NW8       30.13S
STATESBORO     SUNNY     62  38  40 NW6       30.16R
SYLVANIA       CLEAR    N/A N/A N/A NW6       30.17S
CLAXTON        FAIR      63  38  39 W9        30.16S

...CSRA...CENTRAL AND FAR SOUTHEAST GEORGIA...

CITY           SKY/WX    TMP DP  RH WIND       PRES   REMARKS
THOMSON        SUNNY     63  32  31 CALM      30.21S
AUGUSTA-BUSH   SUNNY     63  30  28 NW9       30.16S
AUGUSTA-DANIEL SUNNY     62  30  29 NW7       30.17S
SWAINSBORO     FAIR      63  32  31 NW6       30.17S
VIDALIA        SUNNY     64  39  39 NW7       30.17S
EASTMAN        FAIR      67 -28   2 N6        30.20S
HAZLEHURST     FAIR      65  34  31 N6        30.16S
ALMA           SUNNY     65  32  29 N10       30.16S
WAYCROSS       SUNNY     69  36  30 N9        30.15S
JESUP          FAIR      64  41  42 N7        30.16R
BAXLEY         FAIR      64  37  36 N8        30.16S
BRUNSWICK      SUNNY     66  41  39 W9        30.15S
SAINT SIMONS   SUNNY     66  33  29 VRB6      30.14R

$$

SCZ027-028-034-036>038-045-046-048>050-GAZ119-141-022100-
...LAKE AND SUPPLEMENTAL COASTAL OBSERVATIONS...

STATION/POSITION TIME  TEMP    WIND        PRES    WAVE   SWELL
                       AIR SEA DIR/SP/G            HT/PER HT/PER/DIR
                 (UTC) (F)     (DEG/KT/KT) (MB)    (FT/S) (FT/S/D)
WINYAH BAY       1845   57     320/  7     1020.0
LAKE MURRAY      1920   59     290/  6/ 17 1020.3F
ACE BASIN NERRS  1845   61     330/  3     1020.0
FORT PULASKI     1948   60 63  360/ 10/ 13 1020.7S
SAPELO ISLAND    1900   64     330/  7     1021.0

$$

ANZ835-935-AMZ111-154-330-350-352-354-370-450-454-472-022100-
...C-MAN AND BUOY OBSERVATIONS...

STATION/POSITION TIME  TEMP    WIND        PRES    WAVE   SWELL
                       AIR SEA DIR/SP/G            HT/PER HT/PER/DIR
                 (UTC) (F)     (DEG/KT/KT) (MB)    (FT/S) (FT/S/D)
BUOY 41004       1850   58 74   10/ 14/ 17 1019.6    4/ 5   2/140/ 9
BUOY 41008       1850   57 65  320/ 10/ 14 1020.6    2/ 9   2/ 80/ 9
FOLLY BEACH CMAN 1900   59     350/  6/  8 1021.0F
CAPERS NEARSHORE 1908   57 63   40/  4/  6 1020.1F
FRIPP NEARSHORE  1908   58 63   10/  8/ 10 1020.4F


STATION/POSITION TIME  TEMP    WIND        PRES    WAVE   SWELL
                       AIR SEA DIR/SP/G            HT/PER HT/PER/DIR
                 (UTC) (F)     (DEG/KT/KT) (MB)    (FT/S) (FT/S/D)
5E ST. MARYS GA  2000      67                N/A     2/ 9
FRYING PAN BUOY  1920   57 74  340/ 14/ 16 1018.9
BUOY 41025       1850   55 77  340/ 10/ 16 1017.6    4/ 7   3/ 60/ 7
CAPE LOOKOUT NC  1900   55     330/  6/  7 1017.9F
BUOY 41002       1850   70 74  310/ 14/ 17 1016.3    5/ 7   3/250/ 7
BUOY 41010       NOT AVBL
ST AUGUSTINE FL  1900   60 67   10/ 10/ 12 1021.5F


$$




USA.gov is the U.S. government's official web portal to all federal, state and local government web resources and services.